Gustavus, AK

11:42 PM AKDT on May 26, 2017 (GMT -0800)
Gustavus

Weather History for PAGS - September, 2012

Change the Weather History Date:

Saturday, September 29, 2012

  Actual Average Record
Temperature  
Mean Temperature 46 °F -  
Max Temperature 51 °F 52 °F 64 °F (2003)
Min Temperature 42 °F 37 °F 23 °F (1996)
Degree Days  
Heating Degree Days 18    
Moisture  
Dew Point 41 °F    
Average Humidity 78    
Maximum Humidity 87    
Minimum Humidity 71    
Precipitation  
Precipitation 0.00 in - - ()
Sea Level Pressure  
Sea Level Pressure 29.91 in    
Wind  
Wind Speed 7 mph (SE)    
Max Wind Speed 14 mph    
Max Gust Speed 16 mph    
Visibility 10 miles    
Events      
Averages and records for this station are not official NWS values.
T = Trace of Precipitation, MM = Missing Value Source: NWS Daily Summary

Daily Weather History Graph

Daily Weather History Graph

Search for Another Location

Airport or City:

Trip Planner

Search our weather history database for the weather conditions in past years. The results will help you decide how hot, cold, wet, or windy it might be!

Date:

Astronomy

Sep. 29, 2012 Rise Set
Actual Time 7:04 AM AKDT 6:40 PM AKDT
Civil Twilight 6:24 AM AKDT 7:19 PM AKDT
Nautical Twilight 5:38 AM AKDT 8:06 PM AKDT
Astronomical Twilight 4:49 AM AKDT 8:54 PM AKDT
Moon 6:03 PM AKDT (9/29) 6:50 AM AKDT (9/29)
Length of Visible Light 12h 54m
Length of Day
11h 35m
Full, 100% of the Moon is Illuminated
Sep 29
Full
Sep 29
Full
Oct 7
Last Quarter
Oct 15
New
Oct 21
First Quarter

Hourly Weather History & Observations

Time (AKDT) Temp. Windchill Dew Point Humidity Pressure Visibility Wind Dir Wind Speed Gust Speed Precip Events Conditions
12:16 AM 48.2 °F - 41.0 °F 76% 29.83 in 10.0 mi SE 6.9 mph - N/A   Overcast
12:36 AM 48.2 °F - 41.0 °F 76% 29.84 in 10.0 mi ESE 8.1 mph - N/A   Overcast
12:56 AM 48.2 °F - 41.0 °F 76% 29.84 in 10.0 mi SE 6.9 mph - N/A   Overcast
1:16 AM 48.2 °F - 41.0 °F 76% 29.84 in 10.0 mi ESE 8.1 mph - N/A   Overcast
1:36 AM 48.2 °F - 41.0 °F 76% 29.83 in 10.0 mi ESE 8.1 mph - N/A   Overcast
1:56 AM 48.2 °F - 41.0 °F 76% 29.83 in 10.0 mi ESE 5.8 mph - N/A   Overcast
2:16 AM 48.2 °F - 41.0 °F 76% 29.83 in 10.0 mi SE 10.4 mph - N/A   Overcast
2:36 AM 48.2 °F - 41.0 °F 76% 29.84 in 10.0 mi SSE 5.8 mph - N/A   Overcast
2:56 AM 46.4 °F - 41.0 °F 81% 29.84 in 10.0 mi Calm Calm - N/A   Overcast
3:16 AM 46.4 °F - 41.0 °F 81% 29.84 in 10.0 mi Calm Calm - N/A   Overcast
3:36 AM 46.4 °F 43.5 °F 41.0 °F 81% 29.84 in 10.0 mi SE 5.8 mph - N/A   Overcast
3:56 AM 48.2 °F - 42.8 °F 82% 29.84 in 10.0 mi SE 9.2 mph - N/A   Overcast
4:16 AM 48.2 °F - 42.8 °F 82% 29.84 in 10.0 mi SE 5.8 mph - N/A   Overcast
4:36 AM 48.2 °F - 42.8 °F 82% 29.84 in 10.0 mi SSE 5.8 mph - N/A   Overcast
4:56 AM 46.4 °F 42.9 °F 42.8 °F 87% 29.85 in 10.0 mi SSE 6.9 mph - N/A   Overcast
5:16 AM 46.4 °F 42.9 °F 41.0 °F 81% 29.85 in 10.0 mi SSE 6.9 mph - N/A   Overcast
5:36 AM 46.4 °F 42.9 °F 41.0 °F 81% 29.84 in 10.0 mi SE 6.9 mph - N/A   Overcast
5:56 AM 46.4 °F 42.4 °F 42.8 °F 87% 29.84 in 10.0 mi ESE 8.1 mph - N/A   Mostly Cloudy
6:16 AM 46.4 °F 41.1 °F 42.8 °F 87% 29.84 in 10.0 mi SE 11.5 mph - N/A   Mostly Cloudy
6:36 AM 48.2 °F - 42.8 °F 82% 29.84 in 10.0 mi ESE 10.4 mph - N/A   Overcast
6:56 AM 48.2 °F - 41.0 °F 76% 29.84 in 10.0 mi SE 10.4 mph - N/A   Overcast
7:16 AM 46.4 °F 41.5 °F 41.0 °F 81% 29.85 in 10.0 mi SE 10.4 mph - N/A   Overcast
7:36 AM 46.4 °F 41.5 °F 39.2 °F 76% 29.85 in 10.0 mi SE 10.4 mph 16.1 mph N/A   Overcast
7:56 AM 46.4 °F 41.5 °F 39.2 °F 76% 29.86 in 10.0 mi SE 10.4 mph - N/A   Overcast
8:16 AM 46.4 °F 41.5 °F 41.0 °F 81% 29.87 in 10.0 mi SE 10.4 mph - N/A   Overcast
8:36 AM 46.4 °F 43.5 °F 41.0 °F 81% 29.87 in 10.0 mi SSE 5.8 mph - N/A   Overcast
8:56 AM 46.4 °F 45.2 °F 41.0 °F 81% 29.88 in 10.0 mi SE 3.5 mph - N/A   Overcast
9:16 AM 46.4 °F 43.5 °F 41.0 °F 81% 29.89 in 10.0 mi East 5.8 mph - N/A   Overcast
9:36 AM 46.4 °F 42.9 °F 41.0 °F 81% 29.89 in 10.0 mi East 6.9 mph - N/A   Overcast
9:56 AM 48.2 °F - 42.8 °F 82% 29.90 in 10.0 mi ESE 8.1 mph - N/A   Overcast
10:16 AM 48.2 °F - 42.8 °F 82% 29.90 in 10.0 mi ESE 10.4 mph - N/A   Overcast
10:36 AM 48.2 °F - 41.0 °F 76% 29.91 in 10.0 mi ESE 11.5 mph - N/A   Overcast
10:56 AM 48.2 °F - 42.8 °F 82% 29.92 in 10.0 mi SSW 5.8 mph - N/A   Overcast
11:16 AM 46.4 °F 43.5 °F 39.2 °F 76% 29.93 in 10.0 mi West 5.8 mph - N/A   Mostly Cloudy
11:36 AM 46.4 °F 45.2 °F 39.2 °F 76% 29.93 in 10.0 mi East 3.5 mph - N/A   Overcast
11:56 AM 48.2 °F - 42.8 °F 82% 29.93 in 10.0 mi East 3.5 mph - N/A   Overcast
12:16 PM 48.2 °F - 42.8 °F 82% 29.93 in 10.0 mi ESE 6.9 mph - N/A   Scattered Clouds
12:36 PM 50.0 °F - 42.8 °F 76% 29.94 in 10.0 mi ESE 8.1 mph - N/A   Clear
12:56 PM 51.8 °F - 42.8 °F 71% 29.94 in 10.0 mi SE 10.4 mph - N/A   Clear
1:16 PM 50.0 °F - 42.8 °F 76% 29.94 in 10.0 mi SE 9.2 mph - N/A   Scattered Clouds
1:36 PM 51.8 °F - 42.8 °F 71% 29.94 in 10.0 mi SSE 9.2 mph - N/A   Scattered Clouds
1:56 PM 51.8 °F - 42.8 °F 71% 29.94 in 10.0 mi SE 12.7 mph - N/A   Clear
2:16 PM 51.8 °F - 42.8 °F 71% 29.94 in 10.0 mi ESE 10.4 mph - N/A   Mostly Cloudy
2:36 PM 51.8 °F - 42.8 °F 71% 29.93 in 10.0 mi ESE 8.1 mph - N/A   Overcast
2:56 PM 50.0 °F - 41.0 °F 71% 29.94 in 10.0 mi SSE 6.9 mph - N/A   Overcast
3:16 PM 46.4 °F - 39.2 °F 76% 29.94 in 10.0 mi Calm Calm - N/A   Mostly Cloudy
3:36 PM 46.4 °F 45.2 °F 41.0 °F 81% 29.94 in 10.0 mi ENE 3.5 mph - N/A   Scattered Clouds
3:56 PM 48.2 °F - 42.8 °F 82% 29.94 in 10.0 mi East 5.8 mph - N/A   Scattered Clouds
4:16 PM 48.2 °F - 42.8 °F 82% 29.94 in 10.0 mi ENE 3.5 mph - N/A   Mostly Cloudy
4:36 PM 48.2 °F - 42.8 °F 82% 29.94 in 10.0 mi Calm Calm - N/A   Mostly Cloudy
4:56 PM 48.2 °F - 41.0 °F 76% 29.95 in 6.0 mi South 6.9 mph - N/A   Overcast
5:16 PM 46.4 °F - 39.2 °F 76% 29.94 in 9.0 mi Calm Calm - N/A   Overcast
5:36 PM 46.4 °F 45.2 °F 41.0 °F 81% 29.94 in 10.0 mi East 3.5 mph - N/A   Overcast
5:56 PM 46.4 °F 45.2 °F 39.2 °F 76% 29.95 in 10.0 mi East 3.5 mph - N/A   Overcast
6:16 PM 46.4 °F - 39.2 °F 76% 29.95 in 10.0 mi Calm Calm - N/A   Overcast
6:36 PM 46.4 °F 45.2 °F 39.2 °F 76% 29.95 in 10.0 mi SSE 3.5 mph - N/A   Overcast
6:56 PM 46.4 °F - 39.2 °F 76% 29.95 in 10.0 mi Calm Calm - N/A   Mostly Cloudy
7:16 PM 44.6 °F 43.1 °F 39.2 °F 81% 29.95 in 10.0 mi ESE 3.5 mph - N/A   Mostly Cloudy
7:36 PM 44.6 °F 41.4 °F 39.2 °F 81% 29.96 in 10.0 mi SE 5.8 mph - N/A   Mostly Cloudy
7:56 PM 44.6 °F 41.4 °F 39.2 °F 81% 29.96 in 10.0 mi SE 5.8 mph - N/A   Overcast
8:16 PM 46.4 °F 41.9 °F 39.2 °F 76% 29.96 in 10.0 mi SE 9.2 mph - N/A   Overcast
8:36 PM 44.6 °F 39.2 °F 39.2 °F 81% 29.96 in 10.0 mi SE 10.4 mph - N/A   Overcast
8:56 PM 44.6 °F 38.1 °F 39.2 °F 81% 29.96 in 10.0 mi SE 13.8 mph - N/A   Overcast
9:16 PM 44.6 °F 39.7 °F 39.2 °F 81% 29.97 in 10.0 mi SE 9.2 mph - N/A   Mostly Cloudy
9:36 PM 46.4 °F 40.7 °F 39.2 °F 76% 29.97 in 10.0 mi SE 12.7 mph - N/A   Overcast
9:56 PM 46.4 °F 41.9 °F 39.2 °F 76% 29.97 in 10.0 mi ESE 9.2 mph - N/A   Overcast
10:16 PM 46.4 °F 41.9 °F 39.2 °F 76% 29.98 in 10.0 mi SE 9.2 mph - N/A   Overcast
10:36 PM 46.4 °F 42.9 °F 39.2 °F 76% 29.99 in 10.0 mi South 6.9 mph - N/A   Overcast
10:56 PM 44.6 °F 41.4 °F 37.4 °F 76% 30.00 in 10.0 mi WSW 5.8 mph - N/A   Mostly Cloudy
11:16 PM 44.6 °F 43.1 °F 37.4 °F 76% 30.01 in 9.0 mi SSW 3.5 mph - N/A   Overcast
11:36 PM 42.8 °F - 37.4 °F 81% 30.02 in 10.0 mi Calm Calm - N/A   Overcast
11:56 PM 42.8 °F - 37.4 °F 81% 30.02 in 10.0 mi Calm Calm - N/A   Overcast